Flag for Germany Weather past 2 weeks in Hanau, Hesse, Germany

Now
36 °F

Sprinkles. Partly cloudy.


Feels Like: 33 °F
Forecast: 27 / 36 °F
Wind: 3 mph from Southwest

Location: Frankfurt-M-Flughafen Airport

Current Time: Jan 31, 2015 at 5:42:55 PM

Latest Report: Jan 31, 2015 at 5:20 PM


Visibility: 3 mi

Pressure: 29.09 "Hg

Humidity: 93%

Dew point: 34 °F

Location of HanauLocation

Historic Weather in Hanau — Graph

°F

Hanau temperature yesterday

Maximum temperature yesterday: 39 °F (at 2:20 PM)
Minimum temperature yesterday: 30 °F (at 9:20 PM)
Average temperature yesterday: 35 °F

Past Weeks' High & Low Weather Summary

 TemperatureHumidityPressure
High43 °F (Jan 16, 4:50 PM)100% (Jan 17, 12:50 AM)30.42 "Hg (Jan 17, 12:50 AM)
Low25 °F (Jan 24, 1:50 AM)65% (Jan 30, 2:20 PM)28.71 "Hg (Jan 30, 1:20 AM)
Average35 °F89%29.86 "Hg
* Reported Jan 16 4:20 PM — Jan 31 4:20 PM, Hanau, Weather by CustomWeather, © 2014

Note: Actual official high and low records may vary slightly from our data, if they occured in-between our weather recording intervals... More about our weather records

Advertising

Hanau weather history for previous 24 hours

 ConditionsComfort  
Time TempWeatherWind HumidityBarometerVisibility
4:20 PM
Jan 31
37 °FSprinkles. Broken clouds.8 mph81%29.06 "HgN/A
3:50 PM37 °FScattered showers. Broken clouds.8 mph81%29.06 "HgN/A
3:20 PM39 °FScattered showers. Broken clouds.8 mph75%29.06 "HgN/A
2:50 PM39 °FPartly sunny.10 mph70%29.06 "HgN/A
2:20 PM39 °FPartly sunny.13 mph65%29.03 "HgN/A
1:50 PM39 °FBroken clouds.13 mph65%29.06 "HgN/A
1:20 PM39 °FBroken clouds.10 mph65%29.06 "HgN/A
12:50 PM39 °FBroken clouds.13 mph65%29.06 "HgN/A
12:20 PM37 °FScattered clouds.14 mph70%29.03 "HgN/A
11:50 AM37 °FScattered clouds.12 mph75%29.03 "HgN/A
11:20 AM37 °FBroken clouds.10 mph75%29.03 "HgN/A
10:50 AM37 °FBroken clouds.12 mph75%29.03 "HgN/A
10:20 AM37 °FBroken clouds.15 mph75%29.03 "HgN/A
9:50 AM36 °FBroken clouds.10 mph81%29.00 "HgN/A
9:20 AM36 °FBroken clouds.10 mph81%29.00 "HgN/A
8:50 AM34 °FPartly sunny.14 mph87%29.00 "HgN/A
8:20 AM34 °FPartly sunny.13 mph87%29.00 "HgN/A
7:50 AM34 °FPartly cloudy.15 mph87%28.97 "HgN/A
7:20 AM34 °FPassing clouds.12 mph87%28.97 "HgN/A
6:50 AM34 °FPassing clouds.9 mph87%28.97 "HgN/A
6:20 AM34 °FLight snow. Passing clouds.9 mph87%28.97 "HgN/A
5:50 AM34 °FLight snow. Passing clouds.8 mph87%28.97 "HgN/A
5:20 AM34 °FLight snow. Partly cloudy.9 mph87%28.94 "Hg6 mi
4:20 AM34 °FLight snow. Passing clouds.13 mph87%28.94 "HgN/A
3:50 AM34 °FPassing clouds.13 mph87%28.94 "HgN/A
3:20 AM34 °FPartly cloudy.10 mph81%28.94 "HgN/A
2:50 AM34 °FPassing clouds.9 mph81%28.94 "HgN/A
2:20 AM34 °FPassing clouds.10 mph81%28.94 "HgN/A
1:50 AM34 °FOvercast.8 mph87%28.94 "HgN/A
1:20 AM32 °FPassing clouds.8 mph93%28.94 "HgN/A
12:50 AM32 °FPassing clouds.5 mph93%28.94 "HgN/A
12:20 AM32 °FPassing clouds.6 mph100%28.94 "HgN/A
11:50 PM
Jan 30
32 °FPassing clouds.5 mph93%28.94 "HgN/A
11:20 PM32 °FPassing clouds.3 mph93%28.94 "HgN/A
10:20 PM30 °FPassing clouds.No wind100%28.91 "HgN/A
9:50 PM30 °FPassing clouds.No wind93%28.91 "HgN/A
9:20 PM30 °FPassing clouds.3 mph100%28.91 "HgN/A
8:50 PM32 °FPassing clouds.3 mph93%28.91 "HgN/A
8:20 PM32 °FPassing clouds.1 mph100%28.91 "HgN/A
7:50 PM34 °FPassing clouds.3 mph93%28.91 "HgN/A
7:20 PM32 °FPassing clouds.5 mph100%28.88 "HgN/A
6:50 PM36 °FPartly cloudy.3 mph87%28.88 "HgN/A
6:20 PM34 °FPartly cloudy.3 mph93%28.88 "HgN/A
5:50 PM36 °FSprinkles. Partly cloudy.2 mph87%28.88 "HgN/A
5:20 PM36 °FScattered showers. Partly cloudy.2 mph87%28.88 "HgN/A
Weather by CustomWeather, © 2014

See weather overviewHow to use our weather pages